Home > Time Zones > World Clock > Weather > Peru > Lima > Past weeks

Flag for Peru Weather past 2 weeks in Lima, Lima, Peru

Now
63 °F

Overcast.


Feels Like: 63 °F
Forecast: 64 / 70 °F
Wind: 5 mph from South

Location: Lima-Callao / Aerop. Internacional Jorgechavez

Current Time: Aug 30, 2015 at 3:21:56 AM

Latest Report: Aug 30, 2015 at 3:00 AM


Visibility: N/A

Pressure: 29.92 "Hg

Humidity: 94%

Dew point: 61 °F

Location of LimaLocation

Historic Weather in Lima — Graph

°F

Lima temperature yesterday

Maximum temperature yesterday: 72 °F (at 2:00 PM)
Minimum temperature yesterday: 64 °F (at 12:00 AM)
Average temperature yesterday: 66 °F

Past Weeks' High & Low Weather Summary

 TemperatureHumidityPressure
High72 °F (Aug 23, 3:00 PM)94% (Aug 16, 3:00 AM)30.04 "Hg (Aug 16, 3:00 AM)
Low61 °F (Aug 16, 3:00 AM)64% (Aug 17, 3:00 PM)29.83 "Hg (Aug 29, 4:00 PM)
Average65 °F80%29.95 "Hg
* Reported Aug 15 2:00 AM — Aug 30 2:00 AM, Lima, Weather by CustomWeather, © 2015

Note: Actual official high and low records may vary slightly from our data, if they occured in-between our weather recording intervals... More about our weather records

Advertising

Lima weather history for previous 24 hours

 ConditionsComfort  
Time TempWeatherWind HumidityBarometerVisibility
2:00 AM
Sun, Aug 30
63 °FLow clouds.7 mph94%29.92 "HgN/A
1:00 AM64 °FOvercast.8 mph83%29.92 "Hg6 mi
12:00 AM64 °FOvercast.8 mph83%29.92 "Hg6 mi
11:00 PM
Sat, Aug 29
64 °FOvercast.7 mph83%29.92 "Hg5 mi
10:00 PM64 °FOvercast.8 mph83%29.92 "Hg5 mi
9:00 PM64 °FOvercast.9 mph83%29.89 "Hg5 mi
8:00 PM64 °FOvercast.12 mph83%29.89 "HgN/A
7:00 PM66 °FOvercast.10 mph78%29.89 "HgN/A
6:00 PM66 °FPartly sunny.12 mph78%29.86 "HgN/A
5:00 PM68 °FScattered clouds.10 mph73%29.86 "HgN/A
4:00 PM70 °FPassing clouds.9 mph73%29.83 "HgN/A
3:00 PM70 °FScattered clouds.8 mph69%29.86 "HgN/A
2:00 PM72 °FPartly sunny.6 mph65%29.86 "HgN/A
1:00 PM70 °FPartly sunny.8 mph69%29.89 "HgN/A
12:00 PM70 °FPartly sunny.7 mph69%29.92 "HgN/A
11:00 AM68 °FOvercast.7 mph73%29.92 "HgN/A
10:00 AM66 °FOvercast.5 mph78%29.92 "HgN/A
9:00 AM66 °FOvercast.8 mph78%29.92 "HgN/A
8:00 AM64 °FOvercast.5 mph83%29.92 "Hg5 mi
7:00 AM64 °FFog.8 mph83%29.89 "Hg3 mi
6:00 AM64 °FOvercast.8 mph83%29.89 "HgN/A
5:00 AM64 °FOvercast.8 mph83%29.89 "HgN/A
4:00 AM64 °FOvercast.9 mph83%29.89 "HgN/A
Weather by CustomWeather, © 2015

See weather overviewHow to use our weather pages